Weather History for Midland, TX

Change the Weather History Date:

Sunday, April 7, 2013

  Actual Average Record
Temperature  
Mean Temperature 72 °F 62 °F  
Max Temperature 90 °F 77 °F 93 °F (1989)
Min Temperature 53 °F 47 °F 23 °F (1939)
Degree Days  
Heating Degree Days 0 5  
Month to date heating degree days 40 41  
Since 1 July heating degree days 2250 2585  
Cooling Degree Days 7 2  
Month to date cooling degree days 18 11  
Year to date cooling degree days 53 29  
Growing Degree Days 22 (Base 50)    
Moisture  
Dew Point 35 °F    
Average Humidity 46    
Maximum Humidity 83    
Minimum Humidity 8    
Precipitation  
Precipitation 0.00 in 0.02 in 0.75 in (1934)
Month to date precipitation T 0.15  
Year to date precipitation 1.53 2.02  
Snow  
Snow 0.00 in - - ()
Month to date snowfall 0.0  
Since 1 July snowfall 1.0  
Snow Depth 0.00 in    
Sea Level Pressure  
Sea Level Pressure 29.66 in    
Wind  
Wind Speed 14 mph (SW)    
Max Wind Speed 30 mph    
Max Gust Speed 38 mph    
Visibility 10 miles    
Events      
T = Trace of Precipitation, MM = Missing Value Source: NWS Daily Summary

Daily Weather History Graph

Daily Weather History Graph

Search for Another Location

Airport:

Trip Planner

Search our weather history database for the weather conditions in past years. The results will help you decide how hot, cold, wet, or windy it might be!

Date:

Astronomy

Apr. 07, 2013 Rise Set
Actual Time 7:29 AM CDT 8:12 PM CDT
Civil Twilight 7:04 AM CDT 8:37 PM CDT
Nautical Twilight 6:35 AM CDT 9:06 PM CDT
Astronomical Twilight 6:05 AM CDT 9:36 PM CDT
Moon 5:39 AM CDT (4/7) 5:54 PM CDT (4/7)
Length of Visible Light 13h 33m
Length of Day
12h 43m
Waning Crescent, 8% of the Moon is Illuminated
Apr 7
Waning Crescent
Apr 10
New
Apr 18
First Quarter
Apr 25
Full
May 2
Last Quarter

Hourly Weather History & Observations

Time (CDT) Temp. Dew Point Humidity Pressure Visibility Wind Dir Wind Speed Gust Speed Precip Events Conditions
12:53 AM 66.9 °F 39.0 °F 36% 29.72 in 10.0 mi SSW 10.4 mph - N/A   Clear
1:53 AM 63.0 °F 44.1 °F 50% 29.72 in 10.0 mi South 4.6 mph - N/A   Clear
2:53 AM 61.0 °F 45.0 °F 56% 29.71 in 10.0 mi South 8.1 mph - N/A   Clear
3:53 AM 59.0 °F 46.0 °F 62% 29.69 in 10.0 mi South 5.8 mph - N/A   Clear
4:53 AM 57.9 °F 48.0 °F 70% 29.69 in 10.0 mi South 6.9 mph - N/A   Clear
5:53 AM 55.9 °F 48.9 °F 77% 29.69 in 10.0 mi SSW 5.8 mph - N/A   Clear
6:53 AM 57.0 °F 50.0 °F 77% 29.70 in 10.0 mi SSW 9.2 mph - N/A   Clear
7:53 AM 55.0 °F 50.0 °F 83% 29.73 in 10.0 mi SSW 4.6 mph - N/A   Clear
8:53 AM 59.0 °F 53.1 °F 81% 29.75 in 10.0 mi SSW 9.2 mph - N/A   Clear
9:53 AM 69.1 °F 48.9 °F 49% 29.74 in 10.0 mi SSW 16.1 mph - N/A   Clear
10:53 AM 75.9 °F 42.1 °F 30% 29.73 in 10.0 mi SW 16.1 mph - N/A   Clear
11:53 AM 82.9 °F 34.0 °F 17% 29.73 in 10.0 mi SW 17.3 mph 23.0 mph N/A   Clear
12:53 PM 86.0 °F 28.0 °F 12% 29.70 in 10.0 mi WSW 20.7 mph 28.8 mph N/A   Clear
1:53 PM 87.1 °F 25.0 °F 10% 29.67 in 10.0 mi WSW 15.0 mph 24.2 mph N/A   Clear
2:53 PM 89.1 °F 21.9 °F 9% 29.62 in 10.0 mi WSW 23.0 mph 31.1 mph N/A   Clear
3:53 PM 90.0 °F 21.9 °F 8% 29.60 in 10.0 mi WSW 28.8 mph 34.5 mph N/A   Clear
4:53 PM 90.0 °F 21.9 °F 8% 29.58 in 10.0 mi WSW 19.6 mph 27.6 mph N/A   Clear
5:53 PM 89.1 °F 19.9 °F 8% 29.57 in 10.0 mi WSW 26.5 mph 32.2 mph N/A   Clear
6:53 PM 87.1 °F 19.9 °F 8% 29.57 in 10.0 mi WSW 23.0 mph 29.9 mph N/A   Clear
7:53 PM 84.0 °F 19.9 °F 9% 29.58 in 10.0 mi WSW 16.1 mph - N/A   Clear
8:53 PM 77.0 °F 21.0 °F 12% 29.59 in 10.0 mi WSW 9.2 mph - N/A   Clear
9:53 PM 69.1 °F 19.9 °F 15% 29.60 in 10.0 mi West 11.5 mph - N/A   Clear
10:53 PM 73.0 °F 21.0 °F 14% 29.61 in 10.0 mi South 13.8 mph - N/A   Clear
11:53 PM 72.0 °F 44.1 °F 37% 29.60 in 10.0 mi South 12.7 mph - N/A   Clear